KO6TH-15 Weather Reports


time (UTC)temp
C
wind
direction
speed
KPH
gust
KPH
rain 1hr
cm
rain 24hr
cm
rain mn
cm
humidity
%
barometer
mb
20260508135819 10 0 0.0 0.0 0.00 0.00 0.00 99
20260508134819 10 0 0.0 0.0 0.00 0.00 0.00 99
20260508133749 9 0 0.0 0.0 0.00 0.00 0.00 99
20260508132749 8 0 0.0 0.0 0.00 0.00 0.00 99
20260508131719 9 0 0.0 0.0 0.00 0.00 0.00 99
20260508130649 9 0 0.0 0.0 0.00 0.00 0.00 99
20260508125619 9 0 0.0 0.0 0.00 0.00 0.00 99
20260508124549 9 0 0.0 0.0 0.00 0.00 0.00 99
20260508123519 9 0 0.0 0.0 0.00 0.00 0.00 99
20260508122449 10 0 0.0 0.0 0.00 0.00 0.00 99
20260508121419 10 0 0.0 0.0 0.00 0.00 0.00 99
20260508120349 10 0 0.0 0.0 0.00 0.00 0.00 99
20260508115319 10 0 0.0 0.0 0.00 0.00 0.00 99
20260508114319 10 0 0.0 0.0 0.00 0.00 0.00 99
20260508113249 10 0 0.0 0.0 0.00 0.00 0.00 99
20260508112249 10 0 0.0 0.0 0.00 0.00 0.00 99
20260508111249 10 0 0.0 0.0 0.00 0.00 0.00 99
20260508110219 11 0 0.0 0.0 0.00 0.00 0.00 99
20260508105219 11 0 0.0 0.0 0.00 0.00 0.00 99
20260508104219 11 0 0.0 0.0 0.00 0.00 0.00 99
20260508103149 11 0 0.0 0.0 0.00 0.00 0.00 99
20260508102119 11 0 0.0 0.0 0.00 0.00 0.00 99
20260508101049 11 0 0.0 0.0 0.00 0.00 0.00 99
20260508100019 11 0 0.0 0.0 0.00 0.00 0.00 99
20260508094949 11 0 0.0 0.0 0.00 0.00 0.00 99
20260508093919 12 0 0.0 0.0 0.00 0.00 0.00 99
20260508092919 12 0 0.0 0.0 0.00 0.00 0.00 99
20260508091919 12 0 0.0 0.0 0.00 0.00 0.00 99
20260508090919 12 0 0.0 0.0 0.00 0.00 0.00 99
20260508085849 12 0 0.0 0.0 0.00 0.00 0.00 99
20260508084849 12 0 0.0 0.0 0.00 0.00 0.00 99
20260508083819 12 0 0.0 0.0 0.00 0.00 0.00 99
20260508082749 12 0 0.0 0.0 0.00 0.00 0.00 99
20260508081719 12 0 0.0 0.0 0.00 0.00 0.00 99
20260508080719 12 0 0.0 0.0 0.00 0.00 0.00 99
20260508075719 13 0 0.0 0.0 0.00 0.00 0.00 99
20260508074719 13 0 0.0 0.0 0.00 0.00 0.00 99
20260508073649 13 0 0.0 0.0 0.00 0.00 0.00 99
20260508072619 13 0 0.0 0.0 0.00 0.00 0.00 99
20260508071619 13 0 0.0 0.0 0.00 0.00 0.00 99
20260508070549 13 0 0.0 0.0 0.00 0.00 0.00 99
20260508065519 13 0 0.0 0.0 0.00 0.00 0.00 99
20260508064449 14 0 0.0 0.0 0.00 0.00 0.00 99
20260508063419 14 0 0.0 0.0 0.00 0.00 0.00 99
20260508062419 14 0 0.0 0.0 0.00 0.00 0.00 99
20260508061419 14 0 0.0 0.0 0.00 0.00 0.00 98
20260508060419 14 0 0.0 0.0 0.00 0.00 0.00 98
20260508055349 15 0 0.0 0.0 0.00 0.00 0.00 99
20260508054349 15 0 0.0 0.0 0.00 0.00 0.00 99
20260508053319 15 0 0.0 0.0 0.00 0.00 0.00 98
20260508052249 15 0 0.0 0.0 0.00 0.00 0.00 97
20260508051249 16 0 0.0 0.0 0.00 0.00 0.00 97
20260508050219 16 0 0.0 0.0 0.00 0.00 0.00 94
20260508045149 16 0 0.0 0.0 0.00 0.00 0.00 94
20260508044149 16 0 0.0 0.0 0.00 0.00 0.00 96
20260508043119 17 0 0.0 0.0 0.00 0.00 0.00 91
20260508042119 17 0 0.0 0.0 0.00 0.00 0.00 92
20260508041049 17 0 0.0 0.0 0.00 0.00 0.00 89
20260508040019 18 0 0.0 0.0 0.00 0.00 0.00 89
20260508034949 18 0 0.0 0.0 0.00 0.00 0.00 86
20260508033919 19 0 0.0 0.0 0.00 0.00 0.00 84
20260508032849 20 0 0.0 0.0 0.00 0.00 0.00 84
20260508031849 20 0 0.0 0.0 0.00 0.00 0.00 81
20260508030849 21 0 0.0 0.0 0.00 0.00 0.00 78
20260508025819 22 0 0.0 0.0 0.00 0.00 0.00 78
20260508024819 22 0 0.0 0.0 0.00 0.00 0.00 75
20260508023749 23 0 0.0 0.0 0.00 0.00 0.00 72
20260508022749 23 0 0.0 0.0 0.00 0.00 0.00 69
20260508021749 24 0 3.2 0.0 0.00 0.00 0.00 67
20260508020749 24 0 3.2 0.0 0.00 0.00 0.00 66
20260508015719 25 0 1.6 0.0 0.00 0.00 0.00 66
20260508014649 25 0 3.2 0.0 0.00 0.00 0.00 64
20260508013649 25 0 3.2 0.0 0.00 0.00 0.00 64
20260508012619 26 0 3.2 0.0 0.00 0.00 0.00 63
20260508011549 26 0 1.6 0.0 0.00 0.00 0.00 61
20260508010519 26 0 3.2 0.0 0.00 0.00 0.00 62
20260508005519 26 0 1.6 0.0 0.00 0.00 0.00 61
20260508004449 26 0 4.8 0.0 0.00 0.00 0.00 61
20260508003419 26 0 3.2 0.0 0.00 0.00 0.00 61
20260508002349 27 0 3.2 0.0 0.00 0.00 0.00 59
20260508001319 27 0 3.2 0.0 0.00 0.00 0.00 60
20260508000250 28 0 6.4 0.0 0.00 0.00 0.00 56
20260507235249 30 0 3.2 0.0 0.00 0.00 0.00 53
20260507234249 30 0 4.8 0.0 0.00 0.00 0.00 52
20260507233219 31 0 3.2 0.0 0.00 0.00 0.00 51
20260507232219 28 0 6.4 0.0 0.00 0.00 0.00 56
20260507231149 31 0 3.2 0.0 0.00 0.00 0.00 52
20260507230119 30 0 4.8 0.0 0.00 0.00 0.00 53
20260507225049 30 0 3.2 0.0 0.00 0.00 0.00 54
20260507224019 28 0 4.8 0.0 0.00 0.00 0.00 57
20260507222949 30 0 8.0 0.0 0.00 0.00 0.00 52
20260507221949 30 0 3.2 0.0 0.00 0.00 0.00 53
20260507220919 31 0 3.2 0.0 0.00 0.00 0.00 51
20260507215919 30 0 3.2 0.0 0.00 0.00 0.00 53
20260507214919 30 0 6.4 0.0 0.00 0.00 0.00 53
20260507213919 31 0 6.4 0.0 0.00 0.00 0.00 51
20260507212849 29 0 3.2 0.0 0.00 0.00 0.00 55
20260507211819 28 0 1.6 0.0 0.00 0.00 0.00 56
20260507210819 28 0 6.4 0.0 0.00 0.00 0.00 56
20260507205749 30 0 1.6 0.0 0.00 0.00 0.00 54
20260507204719 27 0 1.6 0.0 0.00 0.00 0.00 59
20260507203649 28 0 3.2 0.0 0.00 0.00 0.00 59
20260507202619 27 0 3.2 0.0 0.00 0.00 0.00 60
20260507201549 27 0 8.0 0.0 0.00 0.00 0.00 63
20260507200519 27 0 9.7 0.0 0.00 0.00 0.00 62
20260507195519 25 0 6.4 0.0 0.00 0.00 0.00 66
20260507194449 26 0 3.2 0.0 0.00 0.00 0.00 65
20260507193449 26 0 3.2 0.0 0.00 0.00 0.00 65
20260507192449 25 0 3.2 0.0 0.00 0.00 0.00 68
20260507191419 25 0 4.8 0.0 0.00 0.00 0.00 67
20260507190349 25 0 8.0 0.0 0.00 0.00 0.00 67
20260507185319 25 0 8.0 0.0 0.00 0.00 0.00 69
20260507184249 24 0 6.4 0.0 0.00 0.00 0.00 69
20260507183219 25 0 1.6 0.0 0.00 0.00 0.00 68
20260507182149 24 0 3.2 0.0 0.00 0.00 0.00 69
20260507181119 24 0 3.2 0.0 0.00 0.00 0.00 68
20260507180119 24 0 1.6 0.0 0.00 0.00 0.00 70
20260507175049 23 0 3.2 0.0 0.00 0.00 0.00 71
20260507174019 24 0 4.8 0.0 0.00 0.00 0.00 71
20260507172949 23 0 3.2 0.0 0.00 0.00 0.00 71
20260507171919 23 0 1.6 0.0 0.00 0.00 0.00 66
20260507170849 22 0 3.2 0.0 0.00 0.00 0.00 68
20260507165819 22 0 1.6 0.0 0.00 0.00 0.00 69
20260507164749 22 0 1.6 0.0 0.00 0.00 0.00 70
20260507163719 21 0 3.2 0.0 0.00 0.00 0.00 74
20260507162649 21 0 3.2 0.0 0.00 0.00 0.00 73
20260507161649 20 0 1.6 0.0 0.00 0.00 0.00 77
20260507160619 19 0 4.8 0.0 0.00 0.00 0.00 78
20260507155619 18 0 3.2 0.0 0.00 0.00 0.00 82
20260507154549 18 0 0.0 0.0 0.00 0.00 0.00 84
20260507153519 18 0 0.0 0.0 0.00 0.00 0.00 91
20260507152519 17 0 0.0 0.0 0.00 0.00 0.00 95
20260507151519 17 0 0.0 0.0 0.00 0.00 0.00 97
20260507150449 17 0 0.0 0.0 0.00 0.00 0.00 99
20260507145419 15 0 0.0 0.0 0.00 0.00 0.00 99
20260507144349 13 0 0.0 0.0 0.00 0.00 0.00 99
20260507143319 12 0 0.0 0.0 0.00 0.00 0.00 99
20260507142249 12 0 0.0 0.0 0.00 0.00 0.00 99
20260507141219 11 0 0.0 0.0 0.00 0.00 0.00 99
20260507140149 10 0 0.0 0.0 0.00 0.00 0.00 99